STARLINK-1279, 45360

Orbit data source: Space-Track

STARLINK-1279, 45360 is a payload satellite owned by SpaceX/Seattle (US) in LEO that was launched on Wed, 18 Mar 2020 UTC via an FALCON 9 launch vehicle from the Air Force Eastern Test Range (AFETR). Payload-class satellites include a variety of spacecraft equipped with specific instruments for various scientific and technological missions. These include communications satellites like Starlink; space stations such as the ISS; scientific satellites like the Hubble; Earth observation satellites from companies like Planet Labs, Umbra, and HawkEye 360; GPS; miniature CubeSats for education and research; and military/defense satellites.

Loading next visibility...
Identifier
45360, 2020-019A
Orbit
LEO
Country
Flag of USUS
Related business
Manufacturer
SpaceX/Seattle
Mission
Partially operational Commercial Communications
Bus & Motor
STARLINK, Unknown motor
Mass
260 kg wet, ~248 kg dry
Launch date (UTC)
2020-03-18 (6 years ago)
Launch vehicle
FALCON 9
Launch site
Air Force Eastern Test Range (AFETR)
Object type
Payload
Rocket body
Debris
Shape & HBR
Box + 1 Pan, 10.1 m
Radar Cross Section
13.562 m², Large (>1 m²)

Expand to show TLE details & history
Last TLE update: 5 hours ago

TLE from 5 hours ago
0 STARLINK-1279
1 45360U 20019A   25296.00002315  .01084235  00000-0  35102-1 0  9990
2 45360  53.0560  33.7447 0000691  75.0677  57.0741 15.29081954  5693
Epoch: 2025-10-23T00:00Z
TLE epoch observation values (Epoch: 2025-10-23T00:00:02.000Z)
Latitude
36.45659°
Longitude
148.53104°
Altitude
481.149 km
Speed
7.63 km/s
True Right ascension
12h 00m 49s
True Declination
36° 17' 09"
Sunlit
Object was in daylight at epoch
Visualization orbit readout
Latitude
Unknown
Longitude
Unknown
Altitude
Unknown
Speed
Unknown
Apparent Right ascension
Unknown
Apparent Declination
Unknown
Sunlit
N/A
Visualization observer readout
Local Sidereal Time
00:33:21
Azimuth
Unknown
Elevation
Unknown
Doppler factor
Unknown
Orbital elements
Apogee altitude
479.302 km
Perigee altitude
478.355 km
Semi-major axis
6,856.965 km
Eccentricity
0.00007
Inclination
53.056°
RAAN
33.7447°
Arg. of periapsis
75.0677°
True anomaly
57.08075°
Mean anomaly
57.0741°
Eccentric anomaly
57.07742°
Mean motion
3.82248 °/min
Orbital period
94.18 mins
BSTAR
0.035102
Loading maneuver chart data...
Computing Atmospheric mass density...
Loading historical data...
Loading historical data...
Loading historical data...
Loading historical data...
Loading historical data...
Loading historical data...
Loading historical data...

Documentation

Showing up to 5 results
|